Location: *
(48.8489°N, 2.3218°E)
Time: 10:58:13
(UTC+00:00)

Terra - Pass Details

Date: 23 August 2019
Orbit: 701 x 703 km, 98.2° (Epoch: 23 September)

Event Time Altitude Azimuth Distance (km) Brightness Sun altitude
Exits shadow 22:44:18 26° 262° (W) 1,375 3.4 -28.0°
Maximum altitude 22:44:29 26° 266° (W) 1,373 3.4 -28.0°
Drops below altitude 10° 22:48:29 10° 323° (NW) 2,182 5.2 -28.2°
Sets 22:51:06 0° 336° (NNW) 3,105 6.4 -28.3°
